Datetime-UTC, Datetime-J2000, North, East, Up
2024/03/02 00:00:00, 762609600.00, 0.000000, 0.000000, 0.000000
2024/03/02 00:05:00, 762609900.00, 0.001200, 0.002700, 0.021700
2024/03/02 00:10:00, 762610200.00, 0.004400, 0.011600, -0.003300
2024/03/02 00:15:00, 762610500.00, 0.010900, 0.009500, -0.001300
2024/03/02 00:20:00, 762610800.00, 0.007000, 0.025200, -0.012000
2024/03/02 00:25:00, 762611100.00, 0.004000, 0.010700, 0.002100
2024/03/02 00:30:00, 762611400.00, 0.000800, 0.008300, 0.024100
2024/03/02 00:35:00, 762611700.00, 0.001600, 0.017300, -0.004100
2024/03/02 00:40:00, 762612000.00, 0.003300, 0.015700, -0.014100
2024/03/02 00:45:00, 762612300.00, 0.003100, 0.016200, -0.027000
2024/03/02 00:50:00, 762612600.00, 0.004400, 0.020200, -0.026300
2024/03/02 00:55:00, 762612900.00, 0.008400, 0.017700, -0.055900
2024/03/02 01:00:00, 762613200.00, 0.010300, 0.023100, -0.030300
2024/03/02 01:05:00, 762613500.00, -0.003400, 0.022100, -0.022200
2024/03/02 01:10:00, 762613800.00, 0.000100, 0.009300, -0.041400
2024/03/02 01:15:00, 762614100.00, 0.014000, 0.012100, -0.055300
2024/03/02 01:20:00, 762614400.00, 0.006200, 0.006700, -0.029800
2024/03/02 01:25:00, 762614700.00, 0.011300, 0.018000, -0.056300
2024/03/02 01:30:00, 762615000.00, 0.019800, 0.020100, -0.048400
2024/03/02 01:35:00, 762615300.00, 0.022500, 0.032100, -0.078300
2024/03/02 01:40:00, 762615600.00, 0.015300, 0.028300, -0.054900
2024/03/02 01:45:00, 762615900.00, 0.014800, 0.023800, -0.020000
2024/03/02 01:50:00, 762616200.00, 0.021500, 0.018100, -0.055200
2024/03/02 01:55:00, 762616500.00, 0.006900, 0.023200, -0.042300
2024/03/02 02:00:00, 762616800.00, 0.009600, 0.029800, -0.045800
2024/03/02 02:05:00, 762617100.00, 0.015000, 0.037000, -0.045200
2024/03/02 02:10:00, 762617400.00, 0.008000, 0.029700, -0.044500
2024/03/02 02:15:00, 762617700.00, 0.010300, 0.023400, -0.039400
2024/03/02 02:20:00, 762618000.00, -0.000700, 0.031200, -0.037400
2024/03/02 02:25:00, 762618300.00, -0.000400, 0.016500, -0.019400
2024/03/02 02:30:00, 762618600.00, 0.012400, 0.029500, -0.049600
2024/03/02 02:35:00, 762618900.00, 0.008800, 0.030900, -0.053400
2024/03/02 02:40:00, 762619200.00, 0.014300, 0.041000, -0.060300
2024/03/02 02:45:00, 762619500.00, 0.015700, 0.035400, -0.040600
2024/03/02 02:50:00, 762619800.00, 0.011700, 0.036200, -0.054400
2024/03/02 02:55:00, 762620100.00, 0.017200, 0.033300, -0.052000
2024/03/02 03:00:00, 762620400.00, 0.015500, 0.036900, -0.044100
2024/03/02 03:05:00, 762620700.00, 0.021300, 0.035900, -0.040600
2024/03/02 03:10:00, 762621000.00, 0.021000, 0.038600, -0.052300
2024/03/02 03:15:00, 762621300.00, 0.015200, 0.038800, -0.040400
2024/03/02 03:20:00, 762621600.00, 0.007800, 0.035300, -0.046100
2024/03/02 03:25:00, 762621900.00, 0.020700, 0.035500, -0.031700
2024/03/02 03:30:00, 762622200.00, 0.023900, 0.038300, -0.059300
2024/03/02 03:35:00, 762622500.00, 0.022700, 0.036900, -0.050800
2024/03/02 03:40:00, 762622800.00, 0.014500, 0.029000, -0.039700
2024/03/02 03:45:00, 762623100.00, 0.016800, 0.035000, -0.057500
2024/03/02 03:50:00, 762623400.00, 0.024600, 0.038800, -0.079700
2024/03/02 03:55:00, 762623700.00, 0.020200, 0.035700, -0.072200
2024/03/02 04:00:00, 762624000.00, 0.019200, 0.033800, -0.052300
2024/03/02 04:05:00, 762624300.00, 0.021300, 0.043700, -0.060700
2024/03/02 04:10:00, 762624600.00, 0.018900, 0.036700, -0.062300
2024/03/02 04:15:00, 762624900.00, 0.015600, 0.027200, -0.045500
2024/03/02 04:20:00, 762625200.00, 0.022300, 0.038400, -0.074400
2024/03/02 04:25:00, 762625500.00, 0.022900, 0.034000, -0.082700
2024/03/02 04:30:00, 762625800.00, 0.007500, 0.025600, -0.055500
2024/03/02 04:35:00, 762626100.00, 0.017000, 0.032600, -0.054300
2024/03/02 04:40:00, 762626400.00, 0.017500, 0.031100, -0.067000
2024/03/02 04:45:00, 762626700.00, 0.021000, 0.038900, -0.079200
2024/03/02 04:50:00, 762627000.00, 0.015100, 0.031500, -0.062300
2024/03/02 04:55:00, 762627300.00, 0.022900, 0.025800, -0.065400
2024/03/02 05:00:00, 762627600.00, 0.025900, 0.030200, -0.050000
2024/03/02 05:05:00, 762627900.00, 0.028000, 0.035400, -0.077700
2024/03/02 05:10:00, 762628200.00, 0.045800, 0.038300, -0.087200
2024/03/02 05:15:00, 762628500.00, 0.030400, 0.033100, -0.075600
2024/03/02 05:20:00, 762628800.00, 0.025800, 0.031000, -0.069200
2024/03/02 05:25:00, 762629100.00, 0.012800, 0.034200, -0.073600
2024/03/02 05:30:00, 762629400.00, 0.019000, 0.030500, -0.065300
2024/03/02 05:35:00, 762629700.00, 0.015200, 0.020400, -0.056700
2024/03/02 05:40:00, 762630000.00, 0.016200, 0.019300, -0.055400
2024/03/02 05:45:00, 762630300.00, 0.011100, 0.019000, -0.068400
2024/03/02 05:50:00, 762630600.00, 0.017000, 0.017600, -0.039500
2024/03/02 05:55:00, 762630900.00, 0.021000, 0.025000, -0.050100
2024/03/02 06:00:00, 762631200.00, 0.022600, 0.028800, -0.062800
2024/03/02 06:05:00, 762631500.00, 0.016900, 0.031300, -0.042900
2024/03/02 06:10:00, 762631800.00, 0.025800, 0.025600, -0.046100
2024/03/02 06:15:00, 762632100.00, 0.017600, 0.031400, -0.055600
2024/03/02 06:20:00, 762632400.00, 0.019700, 0.033900, -0.083300
2024/03/02 06:25:00, 762632700.00, 0.023400, 0.038000, -0.062300
2024/03/02 06:30:00, 762633000.00, 0.017800, 0.031000, -0.066200
2024/03/02 06:35:00, 762633300.00, 0.018400, 0.024500, -0.034300
2024/03/02 06:40:00, 762633600.00, 0.025900, 0.029100, -0.036200
2024/03/02 06:45:00, 762633900.00, 0.016300, 0.040600, -0.068100
2024/03/02 06:50:00, 762634200.00, 0.014100, 0.033900, -0.067500
2024/03/02 06:55:00, 762634500.00, 0.014500, 0.033800, -0.051800
2024/03/02 07:00:00, 762634800.00, 0.026400, 0.038200, -0.066800
2024/03/02 07:05:00, 762635100.00, 0.028300, 0.034400, -0.069500
2024/03/02 07:10:00, 762635400.00, 0.018900, 0.033100, -0.050400
2024/03/02 07:15:00, 762635700.00, 0.014200, 0.041000, -0.045400
2024/03/02 07:20:00, 762636000.00, 0.007700, 0.032900, -0.049900
2024/03/02 07:25:00, 762636300.00, -0.004500, 0.038100, -0.069400
2024/03/02 07:30:00, 762636600.00, 0.019600, 0.047200, -0.079100
2024/03/02 07:35:00, 762636900.00, 0.008900, 0.038000, -0.063000
2024/03/02 07:40:00, 762637200.00, 0.016100, 0.039900, -0.070600
2024/03/02 07:45:00, 762637500.00, 0.014900, 0.037000, -0.050100
2024/03/02 07:50:00, 762637800.00, 0.018600, 0.034700, -0.035700
2024/03/02 07:55:00, 762638100.00, 0.037300, 0.036500, -0.062900
2024/03/02 08:00:00, 762638400.00, 0.026800, 0.041800, -0.056700
2024/03/02 08:05:00, 762638700.00, 0.023100, 0.034500, -0.044000
2024/03/02 08:10:00, 762639000.00, 0.020200, 0.031000, -0.046100
2024/03/02 08:15:00, 762639300.00, 0.036500, 0.040400, -0.083400
2024/03/02 08:20:00, 762639600.00, 0.043000, 0.037300, -0.074700
2024/03/02 08:25:00, 762639900.00, 0.047200, 0.042100, -0.098600
2024/03/02 08:30:00, 762640200.00, 0.024300, 0.035000, -0.049900
2024/03/02 08:35:00, 762640500.00, 0.029900, 0.031100, -0.057100
2024/03/02 08:40:00, 762640800.00, 0.031000, 0.040300, -0.067700
2024/03/02 08:45:00, 762641100.00, 0.032800, 0.028000, -0.022600
2024/03/02 08:50:00, 762641400.00, 0.024400, 0.036700, -0.017400
2024/03/02 08:55:00, 762641700.00, 0.026100, 0.033900, -0.072900
2024/03/02 09:00:00, 762642000.00, 0.033600, 0.039600, -0.052500
2024/03/02 09:05:00, 762642300.00, 0.036900, 0.034900, -0.048000
2024/03/02 09:10:00, 762642600.00, 0.020100, 0.035100, -0.050900
2024/03/02 09:15:00, 762642900.00, 0.021300, 0.035200, -0.076300
2024/03/02 09:20:00, 762643200.00, 0.023700, 0.035300, -0.071800
2024/03/02 09:25:00, 762643500.00, 0.035500, 0.039100, -0.034200
2024/03/02 09:30:00, 762643800.00, 0.023200, 0.032200, -0.088900
2024/03/02 09:35:00, 762644100.00, 0.015900, 0.028500, -0.057400
2024/03/02 09:40:00, 762644400.00, 0.017100, 0.032200, -0.062400
2024/03/02 09:45:00, 762644700.00, 0.020300, 0.034700, -0.054600
2024/03/02 09:50:00, 762645000.00, 0.016800, 0.035900, -0.065500
2024/03/02 09:55:00, 762645300.00, 0.027700, 0.041100, -0.079800
2024/03/02 10:00:00, 762645600.00, 0.026600, 0.034600, -0.039000
2024/03/02 10:05:00, 762645900.00, 0.012300, 0.041800, -0.064800
2024/03/02 10:10:00, 762646200.00, 0.021900, 0.036700, -0.072400
2024/03/02 10:15:00, 762646500.00, 0.022500, 0.038800, -0.056800
2024/03/02 10:20:00, 762646800.00, 0.024800, 0.032100, -0.061300
2024/03/02 10:25:00, 762647100.00, 0.025600, 0.047500, -0.062200
2024/03/02 10:30:00, 762647400.00, 0.017100, 0.042400, -0.034600
2024/03/02 10:35:00, 762647700.00, 0.010000, 0.039200, -0.034200
2024/03/02 10:40:00, 762648000.00, 0.028900, 0.043000, -0.071200
2024/03/02 10:45:00, 762648300.00, 0.017600, 0.030300, -0.035300
2024/03/02 10:50:00, 762648600.00, 0.032300, 0.049000, -0.073100
2024/03/02 10:55:00, 762648900.00, 0.012900, 0.044900, -0.042600
2024/03/02 11:00:00, 762649200.00, -0.000100, 0.045000, -0.020300
2024/03/02 11:05:00, 762649500.00, 0.006200, 0.051400, -0.035900
2024/03/02 11:10:00, 762649800.00, -0.003700, 0.051400, -0.003300
2024/03/02 11:15:00, 762650100.00, 0.007200, 0.040400, -0.026600
2024/03/02 11:20:00, 762650400.00, 0.007700, 0.044200, -0.039400
2024/03/02 11:25:00, 762650700.00, 0.048700, 0.041900, -0.102700
2024/03/02 11:30:00, 762651000.00, 0.023400, 0.043500, -0.050300
2024/03/02 11:35:00, 762651300.00, 0.028000, 0.049100, -0.036300
2024/03/02 11:40:00, 762651600.00, 0.021800, 0.048100, -0.050200
2024/03/02 11:45:00, 762651900.00, 0.023500, 0.050800, -0.050800
2024/03/02 11:50:00, 762652200.00, 0.016900, 0.047200, -0.040300
2024/03/02 11:55:00, 762652500.00, 0.011500, 0.029900, -0.048900
2024/03/02 12:00:00, 762652800.00, 0.001700, 0.031400, -0.053200
2024/03/02 12:05:00, 762653100.00, 0.000100, 0.045800, -0.037300
2024/03/02 12:10:00, 762653400.00, -0.004800, 0.040800, -0.066100
2024/03/02 12:15:00, 762653700.00, 0.010900, 0.049800, -0.082500
2024/03/02 12:20:00, 762654000.00, 0.025500, 0.046300, -0.057200
2024/03/02 12:25:00, 762654300.00, 0.022000, 0.048700, -0.037100
2024/03/02 12:30:00, 762654600.00, 0.034100, 0.048800, -0.042600
2024/03/02 12:35:00, 762654900.00, 0.020000, 0.042700, -0.046400
2024/03/02 12:40:00, 762655200.00, 0.016400, 0.057000, -0.076400
2024/03/02 12:45:00, 762655500.00, 0.022200, 0.045100, -0.055800
2024/03/02 12:50:00, 762655800.00, 0.011900, 0.042400, -0.045900
2024/03/02 12:55:00, 762656100.00, 0.019100, 0.039300, -0.050700
2024/03/02 13:00:00, 762656400.00, 0.018700, 0.044500, -0.067300
2024/03/02 13:05:00, 762656700.00, 0.028300, 0.054000, -0.042200
2024/03/02 13:10:00, 762657000.00, 0.024900, 0.051200, -0.054100
2024/03/02 13:15:00, 762657300.00, 0.032000, 0.054000, -0.085700
2024/03/02 13:20:00, 762657600.00, 0.020700, 0.045200, -0.037400
2024/03/02 13:25:00, 762657900.00, 0.030600, 0.042500, -0.090700
2024/03/02 13:30:00, 762658200.00, 0.033500, 0.042300, -0.083500
2024/03/02 13:35:00, 762658500.00, 0.034100, 0.046400, -0.048900
2024/03/02 13:40:00, 762658800.00, 0.007200, 0.041200, -0.011600
2024/03/02 13:45:00, 762659100.00, 0.024600, 0.051700, -0.073000
2024/03/02 13:50:00, 762659400.00, 0.009200, 0.054100, -0.048600
2024/03/02 13:55:00, 762659700.00, 0.006400, 0.055500, -0.072600
2024/03/02 14:00:00, 762660000.00, 0.009300, 0.049700, -0.058200
2024/03/02 14:05:00, 762660300.00, 0.024700, 0.053900, -0.079100
2024/03/02 14:10:00, 762660600.00, 0.025500, 0.055600, -0.070400
2024/03/02 14:15:00, 762660900.00, 0.018300, 0.051500, -0.054700
2024/03/02 14:20:00, 762661200.00, 0.027100, 0.052400, -0.049400
2024/03/02 14:25:00, 762661500.00, 0.016400, 0.046500, -0.045000
2024/03/02 14:30:00, 762661800.00, 0.008100, 0.038100, -0.037500
2024/03/02 14:35:00, 762662100.00, 0.010300, 0.044600, -0.047300
2024/03/02 14:40:00, 762662400.00, 0.028800, 0.052100, -0.028400
2024/03/02 14:45:00, 762662700.00, 0.027900, 0.049800, -0.052000
2024/03/02 14:50:00, 762663000.00, 0.018900, 0.052500, -0.033500
2024/03/02 14:55:00, 762663300.00, 0.027200, 0.055700, -0.042600
2024/03/02 15:00:00, 762663600.00, 0.029200, 0.052000, -0.057800
2024/03/02 15:05:00, 762663900.00, 0.040700, 0.040500, -0.070900
2024/03/02 15:10:00, 762664200.00, 0.041500, 0.058900, -0.079700
2024/03/02 15:15:00, 762664500.00, 0.021300, 0.044400, -0.040300
2024/03/02 15:20:00, 762664800.00, 0.017400, 0.043200, -0.060900
2024/03/02 15:25:00, 762665100.00, 0.018400, 0.053900, -0.047200
2024/03/02 15:30:00, 762665400.00, 0.035100, 0.066900, -0.071100
2024/03/02 15:35:00, 762665700.00, 0.025200, 0.048900, -0.039000
2024/03/02 15:40:00, 762666000.00, 0.027900, 0.051100, -0.054800
2024/03/02 15:45:00, 762666300.00, 0.037100, 0.052900, -0.068900
2024/03/02 15:50:00, 762666600.00, 0.027200, 0.049000, -0.043900
2024/03/02 15:55:00, 762666900.00, 0.029900, 0.064900, -0.055900
2024/03/02 16:00:00, 762667200.00, 0.028600, 0.054800, -0.055100
2024/03/02 16:05:00, 762667500.00, 0.032700, 0.060100, -0.046700
2024/03/02 16:10:00, 762667800.00, 0.030200, 0.058200, -0.070400
2024/03/02 16:15:00, 762668100.00, 0.030900, 0.060600, -0.064400
2024/03/02 16:20:00, 762668400.00, 0.027700, 0.048400, -0.045100
2024/03/02 16:25:00, 762668700.00, 0.019600, 0.051500, -0.043800
2024/03/02 16:30:00, 762669000.00, 0.026900, 0.055200, -0.047900
2024/03/02 16:35:00, 762669300.00, 0.026700, 0.059300, -0.046700
2024/03/02 16:40:00, 762669600.00, 0.025200, 0.055200, -0.053900
2024/03/02 16:45:00, 762669900.00, 0.024400, 0.057300, -0.056600
2024/03/02 16:50:00, 762670200.00, 0.022800, 0.061000, -0.047500
2024/03/02 16:55:00, 762670500.00, 0.025600, 0.078000, -0.059600
2024/03/02 17:00:00, 762670800.00, 0.021700, 0.061800, -0.039600
2024/03/02 17:05:00, 762671100.00, 0.026600, 0.057200, -0.052500
2024/03/02 17:10:00, 762671400.00, 0.033400, 0.069900, -0.049800
2024/03/02 17:15:00, 762671700.00, 0.035500, 0.055100, -0.083900
2024/03/02 17:20:00, 762672000.00, 0.019600, 0.053500, -0.058900
2024/03/02 17:25:00, 762672300.00, 0.023400, 0.051100, -0.049500
2024/03/02 17:30:00, 762672600.00, 0.032000, 0.061200, -0.064300
2024/03/02 17:35:00, 762672900.00, 0.035900, 0.068300, -0.072400
2024/03/02 17:40:00, 762673200.00, 0.025400, 0.050800, -0.062300
2024/03/02 17:45:00, 762673500.00, 0.025800, 0.054800, -0.062800
2024/03/02 17:50:00, 762673800.00, 0.023900, 0.049400, -0.055600
2024/03/02 17:55:00, 762674100.00, 0.013200, 0.051100, -0.037800
2024/03/02 18:00:00, 762674400.00, 0.027200, 0.056300, -0.048700
2024/03/02 18:05:00, 762674700.00, 0.033900, 0.057200, -0.055300
2024/03/02 18:10:00, 762675000.00, 0.031800, 0.052700, -0.049200
2024/03/02 18:15:00, 762675300.00, 0.038000, 0.050300, -0.042000
2024/03/02 18:20:00, 762675600.00, 0.036800, 0.051200, -0.041900
2024/03/02 18:25:00, 762675900.00, 0.032400, 0.049100, -0.048900
2024/03/02 18:30:00, 762676200.00, 0.037600, 0.058600, -0.052300
2024/03/02 18:35:00, 762676500.00, 0.031800, 0.055400, -0.053600
2024/03/02 18:40:00, 762676800.00, 0.035400, 0.055000, -0.069600
2024/03/02 18:45:00, 762677100.00, 0.029800, 0.051100, -0.063500
2024/03/02 18:50:00, 762677400.00, 0.040500, 0.051000, -0.092800
2024/03/02 18:55:00, 762677700.00, 0.029100, 0.052000, -0.075700
2024/03/02 19:00:00, 762678000.00, 0.017100, 0.048000, -0.072800
2024/03/02 19:05:00, 762678300.00, 0.024900, 0.057900, -0.075900
2024/03/02 19:10:00, 762678600.00, 0.026900, 0.059400, -0.060700
2024/03/02 19:15:00, 762678900.00, 0.025400, 0.062200, -0.086200
2024/03/02 19:20:00, 762679200.00, 0.031500, 0.054400, -0.066100
2024/03/02 19:25:00, 762679500.00, 0.020000, 0.048700, -0.061200
2024/03/02 19:30:00, 762679800.00, 0.029300, 0.050500, -0.079700
2024/03/02 19:35:00, 762680100.00, 0.020800, 0.045100, -0.043600
2024/03/02 19:40:00, 762680400.00, 0.041200, 0.049600, -0.067700
2024/03/02 19:45:00, 762680700.00, 0.033000, 0.051600, -0.068900
2024/03/02 19:50:00, 762681000.00, 0.031800, 0.048100, -0.061600
2024/03/02 19:55:00, 762681300.00, 0.030800, 0.051100, -0.069900
2024/03/02 20:00:00, 762681600.00, 0.025100, 0.049800, -0.061500
2024/03/02 20:05:00, 762681900.00, 0.032900, 0.045700, -0.058200
2024/03/02 20:10:00, 762682200.00, 0.035400, 0.051600, -0.065400
2024/03/02 20:15:00, 762682500.00, 0.029900, 0.053100, -0.076100
2024/03/02 20:20:00, 762682800.00, 0.032500, 0.046200, -0.073600
2024/03/02 20:25:00, 762683100.00, 0.029500, 0.047300, -0.085600
2024/03/02 20:30:00, 762683400.00, 0.026000, 0.038800, -0.085700
2024/03/02 20:35:00, 762683700.00, 0.018100, 0.045500, -0.055100
2024/03/02 20:40:00, 762684000.00, 0.033500, 0.046800, -0.059200
2024/03/02 20:45:00, 762684300.00, 0.016200, 0.046800, -0.053200
2024/03/02 20:50:00, 762684600.00, 0.025300, 0.051100, -0.050400
2024/03/02 20:55:00, 762684900.00, 0.014800, 0.039600, -0.061800
2024/03/02 21:00:00, 762685200.00, 0.015300, 0.046800, -0.064200
2024/03/02 21:05:00, 762685500.00, 0.022200, 0.043400, -0.061200
2024/03/02 21:10:00, 762685800.00, 0.021100, 0.049900, -0.060100
2024/03/02 21:15:00, 762686100.00, 0.026700, 0.052100, -0.073500
2024/03/02 21:20:00, 762686400.00, 0.014600, 0.047000, -0.064900
2024/03/02 21:25:00, 762686700.00, 0.004100, 0.041600, -0.047000
2024/03/02 21:30:00, 762687000.00, 0.006900, 0.041600, -0.079600
2024/03/02 21:35:00, 762687300.00, 0.007400, 0.043900, -0.066500
2024/03/02 21:40:00, 762687600.00, 0.004400, 0.050300, -0.081200
2024/03/02 21:45:00, 762687900.00, 0.001700, 0.046900, -0.060200
2024/03/02 21:50:00, 762688200.00, 0.004300, 0.053800, -0.045000
2024/03/02 21:55:00, 762688500.00, 0.000100, 0.050500, -0.061000
2024/03/02 22:00:00, 762688800.00, 0.006900, 0.060100, -0.049900
2024/03/02 22:05:00, 762689100.00, 0.004700, 0.065000, -0.055000
2024/03/02 22:10:00, 762689400.00, 0.014600, 0.061800, -0.051700
2024/03/02 22:15:00, 762689700.00, 0.015000, 0.054000, -0.035400
2024/03/02 22:20:00, 762690000.00, 0.009300, 0.054700, -0.026100
2024/03/02 22:25:00, 762690300.00, 0.006600, 0.061000, -0.033400
2024/03/02 22:30:00, 762690600.00, 0.013400, 0.067300, -0.027000
2024/03/02 22:35:00, 762690900.00, 0.009200, 0.065900, -0.019800
2024/03/02 22:40:00, 762691200.00, 0.006200, 0.057400, -0.021100
2024/03/02 22:45:00, 762691500.00, 0.011700, 0.057400, -0.027900
2024/03/02 22:50:00, 762691800.00, 0.008000, 0.074100, -0.032400
2024/03/02 22:55:00, 762692100.00, 0.008400, 0.053500, -0.025800
2024/03/02 23:00:00, 762692400.00, 0.006700, 0.064800, -0.047200
2024/03/02 23:05:00, 762692700.00, 0.008600, 0.067700, -0.029400
2024/03/02 23:10:00, 762693000.00, 0.008300, 0.076600, -0.044800
2024/03/02 23:15:00, 762693300.00, 0.017600, 0.081000, -0.062400
2024/03/02 23:20:00, 762693600.00, 0.005300, 0.071900, -0.049900
2024/03/02 23:25:00, 762693900.00, 0.014500, 0.076100, -0.054200
2024/03/02 23:30:00, 762694200.00, 0.019300, 0.078500, -0.070900
2024/03/02 23:35:00, 762694500.00, 0.005400, 0.068400, -0.052600
2024/03/02 23:40:00, 762694800.00, -0.003800, 0.060500, -0.042200
2024/03/02 23:45:00, 762695100.00, 0.006900, 0.073200, -0.065600
2024/03/02 23:50:00, 762695400.00, 0.002300, 0.069000, -0.064500
2024/03/02 23:55:00, 762695700.00, 0.005200, 0.070100, -0.059200
